Flag for U.S.A. Weather past 2 weeks in Sunrise, Florida, U.S.A.

Now
54 °F

Clear.


Feels Like: 52 °F
Forecast: 50 / 69 °F
Wind: 8 mph from West

Location: Fort Lauderdale Executive Airport

Current Time: Jan 27, 2015 at 4:00:04 AM

Latest Report: Jan 27, 2015 at 2:53 AM


Visibility: 10 mi

Pressure: 29.98 "Hg

Humidity: 83%

Dew point: 49 °F

Location of SunriseLocation

Historic Weather in Sunrise — Graph

°F

Sunrise temperature yesterday

Maximum temperature yesterday: 74 °F (at 2:53 PM)
Minimum temperature yesterday: 52 °F (at 2:53 AM)
Average temperature yesterday: 62 °F

Past Weeks' High & Low Weather Summary

 TemperatureHumidityPressure
High81 °F (Jan 12, 10:53 AM)100% (Jan 12, 11:53 PM)30.20 "Hg (Jan 12, 11:53 PM)
Low49 °F (Jan 25, 5:53 AM)30% (Jan 25, 2:53 PM)29.85 "Hg (Jan 26, 1:53 PM)
Average69 °F75%30.06 "Hg
* Reported Jan 12 2:00 AM — Jan 27 2:53 AM, Sunrise, Weather by CustomWeather, © 2014

Note: Actual official high and low records may vary slightly from our data, if they occured in-between our weather recording intervals... More about our weather records

Advertising

Sunrise weather history for previous 24 hours

 ConditionsComfort  
Time TempWeatherWind HumidityBarometerVisibility
2:53 AM
Jan 27
54 °FClear.8 mph83%29.98 "Hg10 mi
1:53 AM56 °FClear.7 mph77%29.98 "Hg10 mi
12:53 AM56 °FClear.7 mph77%29.99 "Hg10 mi
11:53 PM
Jan 26
57 °FClear.7 mph74%30.00 "Hg10 mi
10:53 PM58 °FClear.8 mph72%29.98 "Hg10 mi
9:53 PM59 °FClear.9 mph67%29.97 "Hg10 mi
8:53 PM61 °FClear.12 mph60%29.96 "Hg10 mi
7:53 PM62 °FClear.10 mph58%29.93 "Hg10 mi
6:53 PM65 °FPassing clouds.13 mph51%29.92 "Hg10 mi
5:53 PM68 °FPassing clouds.12 mph47%29.90 "Hg10 mi
4:53 PM71 °FSunny.21 mph36%29.88 "Hg10 mi
3:53 PM74 °FSunny.21 mph33%29.86 "Hg10 mi
2:53 PM74 °FScattered clouds.23 mph38%29.85 "Hg10 mi
1:53 PM72 °FScattered clouds.15 mph57%29.85 "Hg10 mi
12:53 PM71 °FScattered clouds.22 mph61%29.89 "Hg10 mi
11:53 AM67 °FScattered clouds.13 mph76%29.93 "Hg10 mi
10:53 AM63 °FBroken clouds.16 mph97%29.96 "Hg10 mi
9:53 AM70 °FScattered clouds.13 mph64%29.94 "Hg10 mi
8:53 AM65 °FScattered clouds.12 mph73%29.95 "Hg10 mi
7:53 AM59 °FScattered clouds.8 mph84%29.93 "Hg10 mi
6:53 AM56 °FClear.8 mph90%29.94 "Hg10 mi
5:53 AM56 °FPassing clouds.6 mph90%29.94 "Hg10 mi
4:53 AM54 °FClear.5 mph93%29.95 "Hg10 mi
Weather by CustomWeather, © 2014

See weather overviewHow to use our weather pages